Location: Unspecified
(0.0000°N, 0.0000°E)
Time: 06:41:45
(UTC+00:00)

CUBESAT XI-V - Pass Details

Date: 10 December 2017
Orbit: 670 x 693 km, 97.9° (Epoch: 21 July)

Event Time Altitude Azimuth Distance (km) Brightness Sun altitude
Rises 03:54:07 0° 171° (S) 3,016 ? -27.1°
Reaches altitude 10° 03:56:20 10° 172° (S) 2,102 ? -26.6°
Enters shadow 04:00:23 67° 197° (SSW) 730 ? -25.7°
